Weather observations for the past three days for
St. Paul Island, St. Paul Island Airport
Imperial (Metric)
Date Time (akdt) Wind (mph) Vis. (mi.) Weather Sky Cond. Temperature (ºF) Relative Humidity Wind Chill (°F) Heat Index (°F) Pressure Precipitation (in)
Air Dwpt 6 hour altimeter (in) sea level (mb) 1 hr 3 hr 6 hr
Max. Min.
15 03:53 W 13 6.00 Fog/Mist OVC004 43 42.1 45 43 97% 37 29.78 1008.5
15 02:53 W 10 4.00 Fog/Mist OVC003 43 42.1 97% 38 29.78 1008.4
15 01:53 W 10 5.00 Fog/Mist OVC003 44.1 43 96% 39 29.76 1007.9
15 00:53 W 14 3.00 Fog/Mist OVC002 44.1 43 96% 38 29.75 1007.5
14 23:53 W 12 2.00 Fog/Mist OVC002 45 44.1 97% 40 29.74 1007.2
14 22:53 W 13 1.25 Fog/Mist OVC002 45 44.1 97% 39 29.73 1006.7
14 21:53 W 13 1.25 Fog/Mist OVC002 45 44.1 50 45 97% 39 29.73 1006.7
14 20:53 W 13 4.00 Fog/Mist OVC003 46 44.1 93% 41 29.73 1006.8
14 19:53 W 18 G 24 10.00 Overcast OVC004 46.9 45 93% 40 29.72 1006.4
14 18:53 W 17 10.00 Overcast OVC005 48 45 89% 42 29.72 1006.4
14 17:53 W 20 9.00 Overcast OVC004 48 45 89% 42 29.72 1006.4
14 16:53 W 20 G 29 9.00 Overcast OVC004 48 45 89% 42 29.71 1006.2
14 15:53 W 17 G 26 7.00 Overcast OVC004 48 45 48.9 45 89% 42 29.7 1005.9
14 14:53 W 17 G 29 9.00 Overcast OVC005 48 45 89% 42 29.7 1005.6
14 13:53 W 15 G 24 6.00 Fog/Mist OVC004 48 46 93% 43 29.69 1005.3
14 12:53 W 16 G 26 8.00 Overcast OVC004 46.9 45 93% 41 29.68 1005.2
14 11:53 W 15 5.00 Fog/Mist OVC003 46 45 96% 40 29.68 1004.9
14 10:53 W 16 5.00 Fog/Mist OVC003 45 44.1 97% 38 29.67 1004.7
14 09:53 W 20 G 29 5.00 Fog/Mist OVC003 45 44.1 45 44.1 97% 38 29.66 1004.4
14 08:53 W 18 G 26 4.00 Fog/Mist OVC003 44.1 44.1 100% 37 29.65 1004.2
14 07:53 W 20 G 30 2.50 Fog/Mist OVC002 44.1 43 96% 37 29.65 1003.9
14 06:53 W 25 G 32 2.00 Fog/Mist and Breezy OVC002 44.1 43 96% 35 29.64 1003.8
14 05:53 W 23 G 32 3.00 Fog/Mist and Breezy OVC002 44.1 43 96% 36 29.64 1003.7
14 04:53 W 23 G 31 3.00 Fog/Mist and Breezy OVC002 44.1 43 96% 36 29.63 1003.6
14 02:53 W 26 G 38 3.00 Fog/Mist and Windy OVC002 44.1 43 96% 35 29.64 1003.8
14 01:53 W 26 G 38 1.25 Fog/Mist and Windy OVC002 44.1 43 96% 35 29.64 1003.8
14 00:53 W 25 G 37 1.50 Fog/Mist and Breezy OVC002 44.1 44.1 100% 35 29.64 1003.7
13 23:53 W 23 G 32 1.75 Light Rain Fog/Mist and Breezy OVC003 45 44.1 97% 37 29.64 1003.6
13 22:53 W 26 G 36 4.00 Light Rain Fog/Mist and Windy OVC003 45 44.1 97% 36 29.63 1003.3
13 21:53 W 26 G 40 4.00 Fog/Mist and Windy OVC003 46 45 46.9 46 96% 38 29.62 1003.0 0.04
13 20:53 W 26 G 40 4.00 Fog/Mist and Windy OVC004 46 45 96% 38 29.61 1002.7
13 19:53 W 26 G 38 3.00 Light Rain Fog/Mist and Windy OVC003 46 45 96% 38 29.6 1002.5
13 18:53 W 25 G 44 1.75 Fog/Mist and Breezy OVC004 46 45 96% 38 29.6 1002.5 0.04
13 17:53 W 25 G 37 4.00 Fog/Mist and Breezy OVC004 46.9 45 93% 39 29.6 1002.4
13 16:53 W 25 G 35 3.00 Light Rain Fog/Mist and Breezy OVC004 46.9 46 97% 39 29.6 1002.3 0.04
13 15:53 W 21 1.25 Fog/Mist and Breezy OVC003 46.9 46 50 44.1 97% 40 29.6 1002.3 0.01 0.01
13 14:53 W 20 2.50 Light Rain Fog/Mist OVC003 46.9 46 97% 40 29.61 1002.7
13 13:53 W 23 G 32 10.00 Overcast and Breezy BKN009 OVC015 48.9 45 86% 42 29.61 1002.9
13 12:53 W 17 G 25 3.00 Fog/Mist OVC004 46.9 46 97% 41 29.61 1002.8
13 11:53 W 17 4.00 Fog/Mist OVC005 46 44.1 93% 40 29.62 1002.9
13 10:53 W 15 5.00 Fog/Mist OVC005 46 44.1 93% 40 29.62 1002.9
13 09:53 W 13 4.00 Light Rain Fog/Mist SCT010 OVC013 44.1 42.1 45 41 93% 38 29.62 1002.9
13 08:53 NW 16 10.00 Overcast BKN023 OVC036 43 37.9 82% 36 29.61 1002.7
13 06:53 W 16 10.00 Overcast OVC035 42.1 39 89% 35 29.6 1002.2
13 05:53 W 14 10.00 Partly Cloudy FEW038 SCT070 41 37.9 89% 34 29.59 1002.1
13 03:53 W 13 10.00 NULL NULL 42.1 39 45 42.1 89% 36 29.58 1001.9 0.03
13 02:53 W 16 G 24 10.00 Overcast FEW011 SCT032 OVC040 44.1 41 89% 37 29.58 1001.8 0.03
13 01:53 SW 17 3.00 Light Rain Fog/Mist SCT005 BKN010 OVC021 44.1 43 96% 37 29.58 1001.6
13 00:53 SW 13 9.00 Overcast BKN020 OVC026 44.1 42.1 93% 38 29.59 1002.1
12 23:53 SW 13 10.00 Overcast BKN010 OVC034 44.1 41 89% 38 29.6 1002.3
12 22:53 SW 14 10.00 Overcast BKN021 OVC036 45 39 80% 39 29.61 1002.6
12 21:53 SW 12 10.00 A Few Clouds FEW038 45 39 51.1 44.1 80% 40 29.62 1003.2
12 20:53 SW 12 10.00 Overcast SCT020 OVC028 46 39.9 79% 41 29.63 1003.4
12 19:53 SW 14 10.00 Overcast FEW017 BKN023 OVC029 46 39.9 79% 40 29.64 1003.7
12 18:53 W 16 10.00 Overcast BKN024 OVC031 51.1 41 69% 29.64 1003.7
12 17:53 NW 15 10.00 Overcast BKN026 OVC030 48 37 66% 43 29.64 1003.7
12 16:53 W 14 10.00 Mostly Cloudy BKN024 48.9 37.9 66% 44 29.64 1003.6
12 14:53 NW 17 10.00 Overcast OVC016 46.9 39 74% 41 29.63 1003.4
12 13:53 NW 16 G 25 10.00 Overcast OVC017 46 37.9 73% 40 29.63 1003.3
12 12:53 NW 15 G 25 10.00 Overcast OVC016 45 39 80% 39 29.61 1002.8
12 11:53 NW 18 G 26 10.00 Overcast OVC017 44.1 37.9 79% 37 29.6 1002.4
12 10:53 NW 16 G 25 10.00 Overcast OVC016 42.1 37 82% 35 29.6 1002.3
12 09:53 NW 17 10.00 Overcast OVC014 42.1 37 44.1 42.1 82% 34 29.58 1001.8
12 08:53 NW 16 G 24 10.00 Overcast OVC011 42.1 39 89% 35 29.57 1001.3
12 07:53 NW 17 G 25 10.00 Overcast OVC007 42.1 39.9 92% 34 29.54 1000.4
12 06:53 NW 21 G 28 10.00 Overcast and Breezy OVC007 42.1 41 96% 34 29.52 999.8
12 05:53 NW 17 3.00 Fog/Mist OVC003 42.1 42.1 100% 34 29.52 999.7
12 04:53 NW 17 7.00 Light Rain OVC003 44.1 43 96% 37 29.5 999.0
Date Time (akdt) Wind (mph) Vis. (mi.) Weather Sky Cond. Air Dwpt Max. Min. Relative Humidity Wind Chill (°F) Heat Index (°F) altimeter (in) sea level (mb) 1 hr 3 hr 6 hr
6 hour
Temperature (ºF) Pressure Precipitation (in)